Regional Weather Roundup
Issued by NWS

Home | Current Version | Previous Version | Text Only | Print | Product List | Glossary On
Versions: 1 2 3 4 5 6 7 8 9 10 11 12 13 14 15 16 17 18 19 20 21 22 23 24 25 26 27 28 29 30 31 32 33 34 35 36 37 38 39 40 41 42 43 44 45 46 47 48 49 50
000
ASUS43 KDMX 210101
RWRIA

WEATHER ROUNDUP FOR IOWA
NATIONAL WEATHER SERVICE DES MOINES IA
800 PM CDT WED SEP 20 2017

NOTE: "FAIR" INDICATES FEW OR NO CLOUDS BELOW 12,000 FEET WITH NO
SIGNIFICANT WEATHER AND/OR OBSTRUCTIONS TO VISIBILITY.

* - THESE STATIONS ARE NOT NWS STATIONS...THUS NOT UNDER NWS
QUALITY CONTROL.  THEY ALSO DO NOT REPORT WEATHER SUCH
AS PRECIPITATION OR FOG.

IAZ001>003-012>014-020>022-031>034-043>046-210200-
   NORTHWEST IOWA

CITY           SKY/WX    TMP DP  RH WIND       PRES   REMARKS
CARROLL *      CLEAR     64  57  77 NW5       29.86S
CHEROKEE *     CLEAR     61  52  72 CALM      29.88S
DENISON *      CLEAR     63  57  82 CALM      29.89R
LE MARS *      CLEAR     61  55  82 CALM      29.88R
ORANGE CITY *  CLEAR     68  52  56 CALM      29.89R
SHELDON *      CLEAR     57  55  94 CALM      29.87S
SIOUX CITY     CLEAR     61  54  77 CALM      29.88R
SPENCER        CLEAR     62  52  69 E3        29.88S
STORM LAKE *   CLEAR     64  48  55 N3        29.88S
$$

IAZ055>058-069>071-079>083-090>094-210200-
   SOUTHWEST IOWA

CITY           SKY/WX    TMP DP  RH WIND       PRES   REMARKS
ATLANTIC *     CLEAR     68  59  73 N7        29.86R
AUDUBON *      CLEAR     66  61  82 CALM      29.88R
CLARINDA *     PTCLDY    73  66  78 N3        29.85S
COUNCIL BLFS * CLEAR     70  57  64 N6        29.86S
CRESTON *      PTCLDY    73  63  68 N7        29.86S
HARLAN  *      CLEAR     64  57  77 N5        29.90S
LAMONI         CLEAR     80  71  74 S5        29.83S HX  84
RED OAK *      CLEAR     72  61  68 N6        29.85R
SHENANDOAH *   CLEAR     73  63  68 CALM      29.84S
$$

IAZ047>049-059>061-072>074-084-210200-
   CENTRAL IOWA

CITY           SKY/WX    TMP DP  RH WIND       PRES   REMARKS
AMES           MOCLDY    74  62  66 N7        29.84R
ANKENY *       PTCLDY    75  61  60 N5        29.84R
BOONE *        CLEAR     72  59  64 N7        29.85R
CHARITON *     CLEAR     77  72  83 S5        29.82F
DES MOINES     PTCLDY    78  61  55 N5        29.82S HX  80
GRINNELL*      CLEAR     76  69  79 N8        29.84S
KNOXVILLE *    CLEAR     79  72  78 SW6       29.80F HX  82
MARSHALLTOWN   CLEAR     73  64  73 N7        29.83R
NEWTON *       MOCLDY    77  66  69 N9        29.83S
PELLA *        CLEAR     79  70  73 CALM      29.82F HX  81
PERRY *          N/A     72  56  55 N5        29.85S
$$

IAZ004>006-015-016-023>025-035-036-210200-
   NORTH CENTRAL IOWA

CITY           SKY/WX    TMP DP  RH WIND       PRES   REMARKS
ALGONA *       CLEAR     64  54  68 NE3       29.88R
CLARION *      CLEAR     63  59  88 NE6       29.87R
ESTHERVILLE    CLEAR     60  54  80 CALM      29.88R
FORT DODGE *   CLEAR     67  56  67 CALM      29.88R
MASON CITY     CLEAR     63  54  72 NW5       29.89R
FOREST CITY *    N/A     61  54  77 CALM      29.88R
IOWA FALLS *     N/A     73  59  62 N3        29.87R
$$

IAZ007>011-017>019-026>030-037>042-050>054-066-210200-
   NORTHEAST IOWA

CITY           SKY/WX    TMP DP  RH WIND       PRES   REMARKS
CEDAR RAPIDS   CLOUDY    80  71  74 W8        29.80R HX  84
CHARLES CITY * CLEAR     68  59  73 N6        29.87R
CLINTON *      TSTM     N/A N/A N/A NW13G33   29.86R
DECORAH *      MOCLDY    70  63  78 N6        29.85S
DUBUQUE        CLOUDY    73  70  90 S10       29.85R THUNDER
MONTICELLO *   CLOUDY    79  70  73 E8        29.82R HX  81
OELWEIN *      CLOUDY    73  70  88 N6        29.85R
WATERLOO       PTCLDY    69  65  86 N3        29.83R
$$

IAZ064-065-067-068-078-210200-
   EAST CENTRAL IOWA

CITY           SKY/WX    TMP DP  RH WIND       PRES   REMARKS
DAVENPORT      TSTM      75  64  69 N10G35    29.88R VSB 1
IOWA CITY      CLOUDY    84  71  65 W7        29.81R HX  89
MUSCATINE *    CLOUDY    81  72  74 S3        29.82R HX  84
QUAD CITIES    CLOUDY    86  69  56 NW9       29.83R THUNDER HX  90
$$

IAZ062-063-075>077-085>089-095>099-210200-
   SOUTHEAST IOWA

CITY           SKY/WX    TMP DP  RH WIND       PRES   REMARKS
BURLINGTON     CLOUDY    84  71  65 S7        29.82R HX  89
FAIRFIELD *    CLOUDY    81  70  69 CALM      29.82R HX  84
FORT MADISON * PTCLDY    84  72  65 SW5       29.84R HX  89
KEOKUK *       CLEAR     84  70  61 S6        29.82R HX  88
OSKALOOSA *    MOCLDY    79  70  74 W5        29.82S HX  82
OTTUMWA        MOCLDY    82  71  69 SW5       29.81S HX  86
WASHINGTON *   CLOUDY    79  73  83 W6        29.82R HX  82
$$

ABBREVIATIONS USED IN REMARKS
   TC - TEMPERATURES IN CELSIUS
  WCI - WIND CHILL INDEX
   HX - HEAT INDEX
  VSB - VISIBILITY
$$





USA.gov is the U.S. government's official web portal to all federal, state and local government web resources and services.